Regional Weather Roundup
Issued by NWS

Home | Current Version | Previous Version | Graphics & Text | Print | Product List | Glossary On
Versions: 1 2 3 4 5 6 7 8 9 10 11 12 13 14 15 16 17 18 19 20 21 22 23 24 25 26 27 28 29 30 31 32 33 34 35 36 37 38 39 40 41 42 43 44 45 46 47 48 49 50
000
ASUS45 KBOI 230710
RWRID

IDAHO REGIONAL WEATHER ROUNDUP
NATIONAL WEATHER SERVICE BOISE ID
100 AM MDT MON OCT 23 2017

NOTE: "FAIR" INDICATES FEW OR NO CLOUDS BELOW 12000 FEET
WITH NO SIGNIFICANT WEATHER AND/OR OBSTRUCTIONS TO VISIBILITY

IDZ012-014-230800-
SOUTHWEST IDAHO


CITY           SKY/WX    TMP DP  RH WIND       PRES   REMARKS
BOISE          PTCLDY    46  44  93 CALM      30.46R
CALDWELL       NOT AVBL
MOUNTAIN HOME  PTCLDY    49  49  99 W7        30.46R
$$

IDZ016-017-230800-
SOUTHCENTRAL IDAHO


CITY           SKY/WX    TMP DP  RH WIND       PRES   REMARKS
BURLEY         PTCLDY    49  43  80 SW15      30.44S
JEROME         CLEAR     47  46  97 SW9       30.46R
TWIN FALLS     PTCLDY    47  44  90 S10       30.47R
$$

IDZ019>023-230800-
SOUTHEAST IDAHO


CITY           SKY/WX    TMP DP  RH WIND       PRES   REMARKS
IDAHO FALLS    CLOUDY    45  39  79 S6        30.40R
POCATELLO      CLOUDY    50  41  71 SW22      30.40S
REXBURG        CLOUDY    42  37  82 E3        30.39R
$$

IDZ006-010-011-018-031-032-230800-
CENTRAL IDAHO MOUNTAINS


CITY           SKY/WX    TMP DP  RH WIND       PRES   REMARKS
MCCALL         MOCLDY    37  36  96 N3        30.46R
HAILEY         PTCLDY    45  32  61 N5        30.42S
STANLEY          N/A     34  31  88 CALM      30.47R
SALMON         CLOUDY    40  33  76 CALM      30.43R
CHALLIS        CLOUDY    42  25  50 W3        30.42R
$$

IDZ002-004-006-007-026-230800-
NORTHERN IDAHO


CITY           SKY/WX    TMP DP  RH WIND       PRES   REMARKS
LEWISTON       MOCLDY    53  37  54 MISG      30.45R
LOWELL           N/A     46  46 100 CALM      30.50R
COEUR D`ALENE  PTCLDY    46  35  65 SW8       30.40R
MULLAN PASS    MOCLDY    33  28  81 MISG      30.38R
$$



USA.gov is the U.S. government's official web portal to all federal, state and local government web resources and services.